Location: Krasnoyarskiy Pitomnik
(51.1333°N, 71.6167°E)
Time: 12:27:29
(UTC+00:00)

Transit 2A - Pass Details

Date: 16 April 2024
Orbit: 593 x 958 km, 66.7° (Epoch: 30 May)

Event Time Altitude Azimuth Distance (km) Brightness Sun altitude
Rises 02:07:17 0° 184° (S) 2,832 9.0 16.4°
Reaches altitude 10° 02:09:41 10° 173° (S) 1,955 8.3 16.8°
Maximum altitude 02:13:27 29° 113° (ESE) 1,166 8.7 17.4°
Drops below altitude 10° 02:17:27 10° 54° (NE) 2,088 9.2 18.0°
Sets 02:20:05 0° 44° (NE) 3,065 9.7 18.4°
